This is the latest recevied weather packets stored in our database for station/object E20YUC-1. If no packets are shown the sender has not sent any weather packets the latest 10 day(s).
| Time | Temp. | Humidity | Pressure | Rain* | Wind** | Luminosity | Snow |
|---|---|---|---|---|---|---|---|
| 1787477243 | 32.78° C | 66% | 994.7 hPa | 0 mm | 1.79 m/s, 0° | - | - |
| 1787476943 | 32.78° C | 66% | 994.7 hPa | 0 mm | 2.68 m/s, 0° | - | - |
| 1787476645 | 32.78° C | 66% | 994.9 hPa | 0 mm | 4.02 m/s, 0° | - | - |
| 1787476343 | 32.78° C | 66% | 994.9 hPa | 0 mm | 0 m/s | - | - |
| 1787475743 | 32.78° C | 66% | 994.8 hPa | 0 mm | 2.68 m/s, 0° | - | - |
| 1787475443 | 32.78° C | 66% | 994.9 hPa | 0 mm | 0 m/s | - | - |
| 1787475150 | 32.78° C | 66% | 994.9 hPa | 0 mm | 1.79 m/s, 0° | - | - |
| 1787474843 | 32.78° C | 66% | 994.8 hPa | 0 mm | 1.79 m/s, 0° | - | - |
| 1787474243 | 32.78° C | 66% | 994.9 hPa | 0 mm | 0.89 m/s, 0° | - | - |
| 1787473943 | 32.78° C | 66% | 995 hPa | 0 mm | 2.24 m/s, 0° | - | - |
| 1787473644 | 32.78° C | 66% | 995 hPa | 0 mm | 4.02 m/s, 0° | - | - |
| 1787473343 | 32.78° C | 66% | 995 hPa | 0 mm | 4.02 m/s, 0° | - | - |
| 1787473043 | 32.78° C | 66% | 995 hPa | 0 mm | 1.34 m/s, 0° | - | - |
| 1787472742 | 32.78° C | 66% | 995 hPa | 0 mm | 0 m/s | - | - |
| 1787472442 | 32.78° C | 66% | 995 hPa | 0 mm | 3.13 m/s, 0° | - | - |
| 1787472144 | 33.33° C | 66% | 995.1 hPa | 0 mm | 2.68 m/s, 0° | - | - |
| 1787471842 | 33.33° C | 66% | 995 hPa | 0 mm | 1.79 m/s, 0° | - | - |
| 1787471542 | 33.33° C | 66% | 995.1 hPa | 0 mm | 2.24 m/s, 0° | - | - |
| 1787471242 | 33.33° C | 66% | 995.1 hPa | 0 mm | 1.79 m/s, 0° | - | - |
| 1787470942 | 32.78° C | 66% | 995.2 hPa | 0 mm | 2.68 m/s, 0° | - | - |
| 1787470644 | 32.78° C | 66% | 995.3 hPa | 0 mm | 4.02 m/s, 0° | - | - |
| 1787470042 | 32.78° C | 66% | 995.2 hPa | 0 mm | 1.34 m/s, 0° | - | - |
| 1787469442 | 32.78° C | 67% | 995.4 hPa | 0 mm | 4.92 m/s, 0° | - | - |
| 1787469144 | 32.78° C | 67% | 995.5 hPa | 0 mm | 1.34 m/s, 0° | - | - |
| 1787468842 | 32.78° C | 68% | 995.6 hPa | 0 mm | 1.34 m/s, 0° | - | - |
* Rain latest hour (hover to see other rain measurements)
** Current wind speed in m/s (hover to see current wind gust speed)